Weather History for Havre, MT

Change the Weather History Date:

Monday, June 17, 2013

  Actual Average Record
Temperature  
Mean Temperature 63 °F 62 °F  
Max Temperature 79 °F 76 °F 100 °F (1961)
Min Temperature 47 °F 49 °F 36 °F (1905)
Degree Days  
Heating Degree Days 2 4  
Month to date heating degree days 85 93  
Since 1 June heating degree days 85 93  
Since 1 July heating degree days 7990 8181  
Cooling Degree Days 0 2  
Month to date cooling degree days 1 19  
Year to date cooling degree days 8 30  
Since 1 June cooling degree days 1 19  
Growing Degree Days 14 (Base 50)    
Moisture  
Dew Point 50 °F    
Average Humidity 66    
Maximum Humidity 93    
Minimum Humidity 38    
Precipitation  
Precipitation 0.00 in 0.08 in 1.91 in (1923)
Month to date precipitation 3.20 1.28  
Year to date precipitation 10.52 5.01  
Snow  
Snow 0.00 in 0.00 in 0.00 in (2000)
Month to date snowfall 0.0 0.5  
Since 1 June snowfall 0.0 0.5  
Since 1 July snowfall 50.6 39.5  
Snow Depth 0.00 in    
Sea Level Pressure  
Sea Level Pressure 30.04 in    
Wind  
Wind Speed 8 mph (East)    
Max Wind Speed 21 mph    
Max Gust Speed 25 mph    
Visibility 10 miles    
Events      
T = Trace of Precipitation, MM = Missing Value Source: NWS Daily Summary

Daily Weather History Graph

Daily Weather History Graph

Search for Another Location

Airport:

Trip Planner

Search our weather history database for the weather conditions in past years. The results will help you decide how hot, cold, wet, or windy it might be!

Date:

Astronomy

Jun. 17, 2013 Rise Set
Actual Time 5:16 AM MDT 9:23 PM MDT
Civil Twilight 4:34 AM MDT 10:05 PM MDT
Nautical Twilight 3:34 AM MDT 11:05 PM MDT
Astronomical Twilight 1:34 AM MDT 1:08 AM MDT
Moon 2:41 PM MDT (6/17) 1:21 AM MDT (6/17)
Length of Visible Light 17h 31m
Length of Day
16h 07m
First Quarter, 61% of the Moon is Illuminated
Jun 17
First Quarter
Jun 23
Full
Jun 29
Last Quarter
Jul 8
New
Jul 15
First Quarter

Hourly Weather History & Observations

Time (MDT) Temp. Dew Point Humidity Pressure Visibility Wind Dir Wind Speed Gust Speed Precip Events Conditions
12:53 AM 54.0 °F 48.9 °F 83% 30.13 in 10.0 mi East 3.5 mph - N/A   Clear
1:53 AM 53.1 °F 48.0 °F 83% 30.13 in 10.0 mi NE 3.5 mph - N/A   Clear
2:53 AM 50.0 °F 46.9 °F 89% 30.13 in 10.0 mi Calm Calm - N/A   Clear
3:53 AM 50.0 °F 45.0 °F 83% 30.12 in 10.0 mi Calm Calm - N/A   Partly Cloudy
4:53 AM 48.9 °F 46.0 °F 90% 30.12 in 10.0 mi ESE 3.5 mph - N/A   Mostly Cloudy
5:53 AM 48.0 °F 46.0 °F 93% 30.13 in 10.0 mi Calm Calm - N/A   Clear
6:53 AM 53.1 °F 48.0 °F 83% 30.13 in 10.0 mi East 4.6 mph - N/A   Clear
7:53 AM 55.9 °F 50.0 °F 80% 30.12 in 10.0 mi East 6.9 mph - N/A   Clear
8:53 AM 61.0 °F 50.0 °F 67% 30.12 in 10.0 mi East 8.1 mph - N/A   Clear
9:53 AM 66.0 °F 52.0 °F 60% 30.10 in 10.0 mi East 5.8 mph - N/A   Clear
10:53 AM 68.0 °F 50.0 °F 52% 30.09 in 10.0 mi Calm Calm - N/A   Clear
11:53 AM 71.1 °F 50.0 °F 47% 30.08 in 10.0 mi Variable 5.8 mph - N/A   Clear
12:53 PM 73.0 °F 48.0 °F 41% 30.05 in 10.0 mi ESE 8.1 mph - N/A   Clear
1:53 PM 75.0 °F 48.0 °F 38% 30.03 in 10.0 mi East 9.2 mph - N/A   Clear
2:53 PM 75.9 °F 48.9 °F 38% 30.01 in 10.0 mi Variable 6.9 mph 16.1 mph N/A   Clear
3:53 PM 77.0 °F 51.1 °F 40% 29.99 in 10.0 mi East 12.7 mph 18.4 mph N/A   Clear
4:53 PM 77.0 °F 53.1 °F 43% 29.97 in 10.0 mi ENE 13.8 mph - N/A   Clear
5:53 PM 78.1 °F 53.1 °F 42% 29.95 in 10.0 mi East 19.6 mph - N/A   Clear
6:53 PM 75.9 °F 53.1 °F 45% 29.94 in 10.0 mi East 17.3 mph 23.0 mph N/A   Clear
7:53 PM 73.0 °F 55.0 °F 53% 29.93 in 10.0 mi ESE 17.3 mph - N/A   Clear
8:53 PM 70.0 °F 54.0 °F 57% 29.92 in 10.0 mi East 12.7 mph - N/A   Clear
9:53 PM 66.0 °F 54.0 °F 65% 29.93 in 10.0 mi East 11.5 mph - N/A   Clear
10:53 PM 64.9 °F 53.1 °F 65% 29.91 in 10.0 mi East 10.4 mph - N/A   Clear
11:53 PM 64.0 °F 51.1 °F 63% 29.91 in 10.0 mi ENE 11.5 mph - N/A   Clear